Laconia, NH

11:30 AM EST on December 13, 2019 (GMT -0500)
Laconia Municipal

Weather History for KLCI - November, 2019

Change the Weather History Date:

Tuesday, November 19, 2019

  Actual Average Record
Temperature  
Mean Temperature 36 °F -  
Max Temperature 37 °F 44 °F 63 °F (1987)
Min Temperature 35 °F 27 °F 19 °F (2005)
Degree Days  
Heating Degree Days 29    
Moisture  
Dew Point 36 °F    
Average Humidity 99    
Maximum Humidity 100    
Minimum Humidity 93    
Precipitation  
Precipitation 0.27 in - - ()
Sea Level Pressure  
Sea Level Pressure 29.78 in    
Wind  
Wind Speed 2 mph ()    
Max Wind Speed 9 mph    
Max Gust Speed -    
Visibility 5.6 miles    
Events Rain    
Averages and records for this station are not official NWS values.
T = Trace of Precipitation, MM = Missing Value Source: Averaged Metar Reports

Daily Weather History Graph

Daily Weather History Graph

Search for Another Location

Airport or City:

Astronomy

Nov. 19, 2019 Rise Set
Actual Time 6:44 AM EST 4:17 PM EST
Civil Twilight 6:13 AM EST 4:48 PM EST
Nautical Twilight 5:38 AM EST 5:23 PM EST
Astronomical Twilight 5:04 AM EST 5:57 PM EST
Moon 11:11 PM EST (11/19) 12:51 PM EST (11/19)
Length of Visible Light 10h 35m
Length of Day
9h 32m
Waning Gibbous, 52% of the Moon is Illuminated
Nov 19
Waning Gibbous
Nov 19
Last Quarter
Nov 26
New
Dec 4
First Quarter
Dec 12
Full

Hourly Weather History & Observations

Time (EST) Temp. Windchill Dew Point Humidity Pressure Visibility Wind Dir Wind Speed Gust Speed Precip Events Conditions
12:56 AM 36.0 °F - 35.1 °F 97% 29.65 in 10.0 mi Calm Calm - 0.00 in Rain Light Rain
1:56 AM 36.0 °F 29.0 °F 36.0 °F 100% 29.68 in 10.0 mi WSW 9.2 mph - 0.01 in Rain Light Rain
2:51 AM 35.6 °F - 35.6 °F 100% 29.67 in 10.0 mi Calm Calm - 0.01 in Rain Light Rain
2:56 AM 36.0 °F - 36.0 °F 100% 29.68 in 10.0 mi Calm Calm - 0.01 in Rain Light Rain
3:13 AM 35.6 °F 32.8 °F 35.6 °F 100% 29.67 in 9.0 mi SW 3.5 mph - 0.00 in Rain Light Rain
3:30 AM 35.6 °F - 35.6 °F 100% 29.67 in 10.0 mi Calm Calm - 0.00 in Rain Light Rain
3:54 AM 35.6 °F - 35.6 °F 100% 29.69 in 5.0 mi Calm Calm - 0.00 in   Overcast
3:56 AM 36.0 °F - 36.0 °F 100% 29.70 in 5.0 mi Calm Calm - 0.00 in   Overcast
4:28 AM 35.6 °F 30.7 °F 35.6 °F 100% 29.70 in 2.5 mi WSW 5.8 mph - 0.00 in   Overcast
4:33 AM 35.6 °F 29.9 °F 35.6 °F 100% 29.70 in 3.0 mi West 6.9 mph - 0.00 in   Overcast
4:47 AM 37.4 °F - 37.4 °F 100% 29.70 in 2.5 mi Calm Calm - 0.00 in   Overcast
5:36 AM 37.4 °F - 35.6 °F 93% 29.70 in 2.5 mi Calm Calm - 0.01 in   Overcast
5:48 AM 37.4 °F - 35.6 °F 93% 29.71 in 3.0 mi Calm Calm - 0.01 in Rain Light Rain
5:56 AM 37.0 °F - 36.0 °F 96% 29.73 in 3.0 mi Calm Calm - 0.01 in Rain Light Rain
6:56 AM 37.0 °F 33.3 °F 36.0 °F 96% 29.75 in 10.0 mi ESE 4.6 mph - 0.00 in Rain Light Rain
7:48 AM 35.6 °F - 35.6 °F 100% 29.76 in 1.8 mi Calm Calm - 0.00 in Rain Light Rain
7:56 AM 36.0 °F - 36.0 °F 100% 29.78 in 1.2 mi Calm Calm - 0.00 in Rain Light Rain
8:20 AM 37.4 °F - 35.6 °F 93% 29.76 in 2.0 mi Calm Calm - 0.00 in   Overcast
8:40 AM 35.6 °F - 35.6 °F 100% 29.76 in 5.0 mi Calm Calm - 0.00 in   Overcast
8:56 AM 36.0 °F - 36.0 °F 100% 29.77 in 9.0 mi Calm Calm - 0.00 in   Overcast
9:56 AM 36.0 °F 31.1 °F 35.1 °F 97% 29.76 in 5.0 mi NE 5.8 mph - 0.10 in Rain Rain
10:10 AM 35.6 °F 31.7 °F 35.6 °F 100% 29.74 in 5.0 mi ENE 4.6 mph - 0.03 in Rain Rain
10:56 AM 36.0 °F - 36.0 °F 100% 29.75 in 4.0 mi Calm Calm - 0.07 in Rain Light Rain
11:56 AM 37.0 °F 33.3 °F 36.0 °F 96% 29.75 in 10.0 mi SSW 4.6 mph - 0.06 in Rain Light Rain
12:56 PM 36.0 °F 30.3 °F 35.1 °F 97% 29.76 in 10.0 mi SW 6.9 mph - 0.00 in Rain Light Rain
1:09 PM 35.6 °F 31.7 °F 35.6 °F 100% 29.75 in 10.0 mi SSW 4.6 mph - 0.01 in Rain Light Rain
1:39 PM 35.6 °F 30.7 °F 35.6 °F 100% 29.75 in 10.0 mi SSW 5.8 mph - 0.01 in Rain Light Rain
1:56 PM 37.0 °F 33.3 °F 36.0 °F 96% 29.77 in 10.0 mi SSW 4.6 mph - 0.01 in Rain Light Rain
2:25 PM 37.4 °F - 35.6 °F 93% 29.76 in 9.0 mi Calm Calm - 0.00 in   Overcast
2:56 PM 37.9 °F 35.5 °F 36.0 °F 93% 29.78 in 10.0 mi WSW 3.5 mph - 0.00 in Rain Light Rain
3:36 PM 37.4 °F - 35.6 °F 93% 29.78 in 10.0 mi Calm Calm - 0.00 in   Overcast
3:56 PM 37.9 °F - 36.0 °F 93% 29.80 in 10.0 mi Calm Calm - 0.00 in   Overcast
4:16 PM 37.4 °F - 35.6 °F 93% 29.79 in 10.0 mi Calm Calm - N/A   Overcast
4:56 PM 37.0 °F - 37.0 °F 100% 29.82 in 10.0 mi Calm Calm - N/A   Overcast
5:23 PM 37.4 °F - 37.4 °F 100% 29.82 in 10.0 mi Calm Calm - N/A   Overcast
5:54 PM 35.6 °F - 35.6 °F 100% 29.83 in 5.0 mi Calm Calm - N/A   Overcast
5:56 PM 36.0 °F - 36.0 °F 100% 29.85 in 6.0 mi Calm Calm - N/A   Mostly Cloudy
6:02 PM 35.6 °F - 35.6 °F 100% 29.83 in 1.8 mi Calm Calm - N/A   Mostly Cloudy
6:11 PM 35.6 °F - 35.6 °F 100% 29.84 in 3.0 mi Calm Calm - N/A   Overcast
6:16 PM 35.6 °F - 35.6 °F 100% 29.84 in 1.8 mi Calm Calm - N/A   Overcast
6:31 PM 35.6 °F 29.9 °F 35.6 °F 100% 29.85 in 2.0 mi WSW 6.9 mph - N/A   Overcast
6:56 PM 36.0 °F - 36.0 °F 100% 29.87 in 10.0 mi Calm Calm - N/A   Overcast
7:11 PM 35.6 °F - 35.6 °F 100% 29.86 in 10.0 mi Calm Calm - N/A   Overcast
7:34 PM 35.6 °F - 35.6 °F 100% 29.85 in 8.0 mi Calm Calm - N/A   Overcast
7:56 PM 36.0 °F - 36.0 °F 100% 29.88 in 3.0 mi Calm Calm - N/A   Overcast
8:12 PM 35.6 °F - 35.6 °F 100% 29.86 in 2.0 mi Calm Calm - 0.00 in   Overcast
8:18 PM 35.6 °F - 35.6 °F 100% 29.86 in 2.0 mi Calm Calm - 0.00 in   Overcast
8:34 PM 35.6 °F - 35.6 °F 100% 29.87 in 1.5 mi Calm Calm - 0.00 in   Overcast
8:56 PM 36.0 °F - 36.0 °F 100% 29.89 in 1.5 mi Calm Calm - 0.00 in   Overcast
9:56 PM 36.0 °F - 36.0 °F 100% 29.88 in 1.5 mi Calm Calm - 0.00 in Rain Light Rain
10:21 PM 35.6 °F - 35.6 °F 100% 29.86 in 1.0 mi Calm Calm - 0.00 in   Overcast
10:33 PM 35.6 °F - 35.6 °F 100% 29.86 in 0.8 mi Calm Calm - 0.00 in   Overcast
10:49 PM 35.6 °F - 35.6 °F 100% 29.86 in 1.0 mi Calm Calm - 0.00 in Rain Light Rain
10:56 PM 36.0 °F - 36.0 °F 100% 29.88 in 1.8 mi Calm Calm - 0.00 in   Overcast
11:09 PM 35.6 °F - 35.6 °F 100% 29.86 in 2.5 mi Calm Calm - N/A   Overcast
11:47 PM 36.0 °F - 36.0 °F 100% 29.86 in 1.8 mi Calm Calm - N/A   Overcast
11:56 PM 35.6 °F - 35.6 °F 100% 29.85 in 3.0 mi Calm Calm - N/A   Overcast